Preview of NWS' New Version of Forecast
This preview is not operational and should not be used for support decisions.

Regional Weather Roundup (RWR)

Issued by National Weather Service (NWS)

                            
000
ASUS46 KPQR 192110
RWROR 

OREGON REGIONAL WEATHER ROUNDUP
NATIONAL WEATHER SERVICE PORTLAND OR
200 PM PDT FRI APR 19 2019

NOTE: "FAIR" INDICATES FEW OR NO CLOUDS BELOW 12,000 FEET WITH
NO SIGNIFICANT WEATHER AND/OR OBSTRUCTIONS TO VISIBILITY.

ORZ001>013-192200-
NORTHWEST OREGON

  
CITY           SKY/WX    TMP DP  RH WIND       PRES   REMARKS
ASTORIA        CLOUDY    55  50  83 NW8       30.01S                  
TILLAMOOK      RAIN      54  52  94 NW6       30.02S                  
NEWPORT        CLOUDY    52  52 100 NW7       30.04S                  
PORTLAND       CLOUDY    60  51  72 NW12      29.97F                  
VANCOUVER WA   CLOUDY    59  51  75 NW10      29.98S                  
SCAPPOOSE      LGT RAIN  59  55  87 N3        29.98F FOG              
HILLSBORO      CLOUDY    59  51  75 NW6       29.97F                  
AURORA         CLOUDY    59  53  80 NW10      29.97F                  
MCMINNVILLE    CLOUDY    59  54  83 N12       29.97S                  
SALEM          CLOUDY    61  53  75 NW8       29.95S                  
CORVALLIS      CLOUDY    62  54  74 NW15      29.96F                  
EUGENE         PTSUNNY   68  56  65 N10       29.93F                  
$$

ORZ021-028-192200-
SOUTHWEST OREGON

  
CITY           SKY/WX    TMP DP  RH WIND       PRES   REMARKS
NORTH BEND     LGT RAIN  55  54  96 NW12      30.03S FOG              
BROOKINGS      CLOUDY    57  52  83 NW8G16    29.99F                  
ROSEBURG       FAIR      75  53  46 N12       29.89F                  
SEXTON SUMMIT  FAIR      67  48  50 CALM      29.96F                  
GRANTS PASS    FAIR      77  50  38 VRB5      29.88F                  
MEDFORD        FAIR      78  53  41 N5        29.85F                  
$$

ORZ014>016-041-192200-
COLUMBIA GORGE

  
CITY           SKY/WX    TMP DP  RH WIND       PRES   REMARKS
TROUTDALE      CLOUDY    62  50  64 NW7       29.96F                  
HOOD RIVER     PTSUNNY   70  52  52 MISG      29.89S                  
THE DALLES     FAIR      72  50  45 NW23G30   29.83F                  
$$

ORZ029>031-041-044-049-050-061>064-502-503-505>511-192200-
EASTERN OREGON

  
CITY           SKY/WX    TMP DP  RH WIND       PRES   REMARKS
MADRAS         FAIR      73  52  46 N8        29.87F                  
REDMOND        PTSUNNY   75  50  41 N8        29.86F                  
BEND           FAIR      77  45  31 NW8G14    29.85F                  
PRINEVILLE     PTSUNNY   72  48  43 NW5G15    29.87F                  
KLAMATH FALLS  FAIR      70  35  27 S5        29.94F                  
LAKEVIEW       FAIR      71  37  28 S18       29.98F                  
HERMISTON      FAIR      80  50  34 SW6       29.80F                  
PENDLETON      FAIR      77  50  38 NW12G17   29.83F                  
JOHN DAY       FAIR      73  46  38 W7        29.89                   
MEACHAM        PTSUNNY   68  47  46 VRB7      29.91F                  
LA GRANDE      FAIR      75  49  39 S14       29.86F                  
BAKER CITY     FAIR      74  48  39 E14       29.88F                  
BURNS          FAIR      75  38  26 VRB6      29.92F                  
ROME             N/A     82  32  16 SW15G24   29.92F                  
ONTARIO        FAIR      78  48  34 CALM      29.89F                  
$$